Regional Weather Roundup
Issued by NWS

Home | Current Version | Previous Version | Graphics & Text | Print | Product List | Glossary On
Versions: 1 2 3 4 5 6 7 8 9 10 11 12 13 14 15 16 17 18 19 20 21 22 23 24 25 26 27 28 29 30 31 32 33 34 35 36 37 38 39 40 41 42 43 44 45 46 47 48 49 50
759
ASUS43 KMPX 302201
RWRMN
WEATHER ROUNDUP FOR MINNESOTA
NATIONAL WEATHER SERVICE TWIN CITIES/CHANHASSEN MN
500 PM CDT MON MAY 30 2016


NOTE: "FAIR" INDICATES FEW OR NO CLOUDS BELOW 12,000 FEET WITH NO
SIGNIFICANT WEATHER AND/OR OBSTRUCTIONS TO VISIBILITY. N/A MEANS
CURRENT SKY AND/OR WEATHER CONDITIONS ARE NOT AVAILABLE.

MNZ060>063-068>070-302300-
   Twin Cities Metro

CITY           SKY/WX    TMP DP  RH WIND       PRES   REMARKS
TWIN CITIES    PTSUNNY   83  48  29 S10G17    29.92F
ST PAUL        MOSUNNY   82  55  39 S7        29.92F
CRYSTAL        PTSUNNY   83  49  30 S14       29.90F
BLAINE         PTSUNNY   82  54  36 MISG      29.93F
EDEN PRAIRIE   SUNNY     83  49  30 S14       29.91F
SOUTH ST PAUL  SUNNY     83  48  28 S7        29.92F
LAKE ELMO      PTSUNNY   79  54  41 S5        29.94F
$$
MNZ001>005-007-008-013>017-022>024-027-028-302300-
   Northwest Minnesota

CITY           SKY/WX    TMP DP  RH WIND       PRES   REMARKS
BEMIDJI        MOSUNNY   78  48  34 E10       29.89F
HALLOCK        CLOUDY    81  41  24 SE8       29.85F
ROSEAU         SUNNY     79  54  41 CALM      29.89F
WARROAD        SUNNY     70  59  68 NE13      29.92S
THIEF RVR FALL CLOUDY    75  48  38 E7        29.88F
CROOKSTON      CLOUDY    75  57  53 NE8       29.84F
FOSSTON        MOSUNNY   84  63  48 NE5       29.87F
DETROIT LAKES  CLOUDY    81  46  30 S12       29.88F
MOORHEAD       CLOUDY    84  46  26 SE15G21   29.80F
PARK RAPIDS    LGT RAIN  73  56  54 NE6       29.89F
MAHNOMEN       MOCLDY    76  53  43 S14       29.87F
$$
MNZ006-009>011-018-025>026-302300-
   North Central Minnesota

CITY           SKY/WX    TMP DP  RH WIND       PRES   REMARKS
BAUDETTE       SUNNY     75  45  34 E6        29.90F
FLAG ISLAND    PTSUNNY   68  52  56 NE9       29.93S
INTL FALLS     MOSUNNY   75  49  39 NE7       29.94R
WASKISH        CLOUDY    79  45  29 SW5       29.91F
BIG FORK       CLOUDY    77  41  27 CALM      29.94S
LONGVILLE      LGT RAIN  72  55  56 S5        29.95R
GRAND RAPIDS   MOSUNNY   78  48  34 S9        29.94S
CRANE LAKE     SUNNY     73  43  33 N5        29.96S
ORR            CLOUDY    73  46  38 CALM      29.92S
COOK           CLOUDY    75  43  31 CALM      29.95S
WALKER         LGT RAIN  73  54  51 SE8       29.91S
$$
MNZ012-019>021-037-302300-
   Northeast Minnesota

CITY           SKY/WX    TMP DP  RH WIND       PRES   REMARKS
DULUTH         PTSUNNY   77  45  32 CALM      29.93F
ELY            MOSUNNY   75  43  31 N5        29.96S
HIBBING        SUNNY     77  41  27 W8        29.93F
EVELETH        PTSUNNY   77  41  27 CALM      29.95S
DULUTH HARBOR  MOSUNNY   72  50  46 E8        29.91F
TWO HARBORS      N/A     77  54  44 SE5       29.92S
SILVER BAY     PTSUNNY   79  46  31 SE8       29.92S
GRAND MARAIS     N/A     79  44  28 NW8G16    29.92S
G MARAIS ARPRT MOSUNNY   70  43  37 W6G16     29.99S
$$
MNZ029>031-032-039>041-046>048-054>057-064-302300-
   West Central Minnesota

CITY           SKY/WX    TMP DP  RH WIND       PRES   REMARKS
FERGUS FALLS   CLOUDY    82  48  30 SE16      29.80F
WHEATON        CLOUDY    88  54  31 SE13      29.82F
MORRIS         MOSUNNY   82  55  39 S17       29.83F
ALEXANDRIA     CLOUDY    80  52  37 SE13      29.90F
ELBOW LAKE     FAIR      81  54  38 E10G17    29.85F
WADENA         PTSUNNY   81  48  32 S13G21    29.89F
GLENWOOD       MOSUNNY   79  52  38 SE16      29.89F
APPLETON       PTSUNNY   84  48  28 S14       29.83F HAZE
BENSON         CLOUDY    84  48  28 S13G22    29.85F
ORTONVILLE     MOSUNNY   84  52  32 S9G21     29.82F
MADISON        MOSUNNY   82  48  30 S15G22    29.83F
WILLMAR        FAIR      82  54  36 SE16      29.88F
$$
MNZ033>034-036-042>043-049>051-058-059-302300-
   Central Minnesota

CITY           SKY/WX    TMP DP  RH WIND       PRES   REMARKS
ST CLOUD       MOSUNNY   81  52  36 S14       29.91F
SAUK CENTRE    FAIR      79  51  37 SE16      29.90F
PAYNESVILLE    MOSUNNY   80  47  30 SE12G17   29.90F
AITKIN         MOSUNNY   79  45  29 CALM      29.92R
PINE RIVER     CLOUDY    72  55  56 E9        29.95F
BRAINERD       PTSUNNY   78  49  35 S12       29.91F
STAPLES        CLOUDY    79  46  31 S14G20    29.90F
LONG PRAIRIE   FAIR      79  52  38 E13       29.91F
LITTLE FALLS   MOSUNNY   79  45  29 S9        29.92F
LITCHFIELD     SUNNY     82  50  32 SE8       29.89F
BUFFALO        SUNNY     82  48  31 SE9       29.92F
MAPLE LAKE     SUNNY     82  57  42 E6        29.93F
HUTCHINSON     CLOUDY    82  56  41 SE13      29.91F
$$
MNZ037-044-045-052-053-302300-
   East Central Minnesota

CITY           SKY/WX    TMP DP  RH WIND       PRES   REMARKS
PRINCETON      SUNNY     82  52  34 S8        29.92F
MORA           MOSUNNY   77  46  33 SW5       29.95S
CAMBRIDGE        N/A     82  59  44 S8        29.91F
RUSH CITY      CLOUDY    81  51  35 S7        29.93F
MOOSE LAKE     CLOUDY    79  50  36 SW3       29.90F
HINCKLEY       CLOUDY    79  54  41 S8        29.93F
CLOQUET        PTSUNNY   79  45  29 CALM      29.93F
MCGREGOR       CLOUDY    77  50  38 NW14      29.94R
$$
MNZ071>073-080-081-089-090-097-098-302300-
   Southwest Minnesota

CITY           SKY/WX    TMP DP  RH WIND       PRES   REMARKS
MONTEVIDEO     PTSUNNY   84  54  34 S14G20    29.86F
GRANITE FALLS  PTSUNNY   85  55  35 SE15G23   29.86F
CANBY          MOSUNNY   85  55  34 S13       29.84F
MARSHALL       CLOUDY    84  56  38 S18       29.84F
REDWOOD FALLS  CLOUDY    82  54  37 S16       29.86F
OLIVIA         CLOUDY    79  52  38 S14       29.87F
PIPESTONE      MOSUNNY   81  55  41 S17       29.86F
WINDOM         CLOUDY    82  54  36 CALM      29.88F
WORTHINGTON      N/A     81  55  40 S12       29.88F
JACKSON        MOSUNNY   82  52  34 S10       29.89F
TRACY          CLOUDY    82  58  43 S12G20    29.86F
SLAYTON        MOSUNNY   83  52  33 S13G20    29.88F
$$
MNZ065>067-074>077-082>085-091>093-302300-
   South Central Minnesota

CITY           SKY/WX    TMP DP  RH WIND       PRES   REMARKS
MANKATO        MOSUNNY   82  48  30 SE9G18    29.91F
NEW ULM        MOSUNNY   81  55  41 SE10      29.89F
ST JAMES       MOSUNNY   79  52  38 SE10      29.90F
FAIRMONT       CLOUDY    81  57  44 SE10      29.89F
GLENCOE        SUNNY     85  52  32 SE10G16   29.90F
FARIBAULT      SUNNY     82  52  34 SE8       29.93F
OWATONNA       MOSUNNY   82  48  30 SE8       29.93F
WASECA         MOSUNNY   82  48  30 SE9       29.94F
ALBERT LEA     CLOUDY    81  55  41 S9        29.94F
$$
MNZ078>079-086>088-094>096-302300-
   Southeast Minnesota

CITY           SKY/WX    TMP DP  RH WIND       PRES   REMARKS
ROCHESTER      SUNNY     79  51  37 S12       29.96F
RED WING       SUNNY     82  48  30 SE6       29.93F
STANTON        SUNNY     84  44  25 SE8       29.92F
DODGE CENTER   SUNNY     84  45  24 SE10G18   29.95F
WINONA         MOSUNNY   81  46  30 SE3       29.96F
AUSTIN         MOSUNNY   79  55  44 S6        29.94F
PRESTON        SUNNY     79  46  30 SE6       29.98F
$$
ABBREVIATIONS USED IN REMARKS
   TC - TEMPERATURES IN CELSIUS
  WCI - WIND CHILL INDEX
   HX - HEAT INDEX
  VSB - VISIBILITY
$$




USA.gov is the U.S. government's official web portal to all federal, state and local government web resources and services.